Probability
0 0 0 0 0 0 0 0 0 0 3 3 3 10 16 29 35 35 39 42 58 65 55 65 74 65 77 87 94 90 84 81 87 74 77 77 71 77 74 65 65 61 61 61
0 0 0 0 0 0 0 0 0 0 6 10 10 13 23 35 42 42 48 52 65 58 61 77 77 74 77 87 90 90 90 87 90 77 90 74 71 71 71 74 77 68 58 52
0 0 0 0 0 0 0 0 0 0 6 13 13 13 26 35 52 52 52 55 61 65 65 77 81 77 81 87 90 94 90 94 90 87 77 77 84 77 65 71 71 68 65 52
0 0 0 0 0 0 0 0 0 0 0 0 3 0 23 32 42 61 68 65 61 68 65 74 84 84 84 90 90 94 94 94 90 87 84 74 77 74 71 74 68 65 71 58
0 0 0 0 0 0 0 0 0 0 0 0 3 0 3 23 26 45 61 68 55 68 68 77 81 87 81 77 87 90 94 94 87 87 87 81 77 77 71 68 68 68 65 61
0 0 0 0 0 0 0 0 0 0 0 0 0 0 0 3 23 32 48 65 74 74 71 81 77 84 81 81 77 81 81 81 84 84 81 81 77 74 71 68 61 52 65 68
0 0 0 0 0 0 0 0 0 0 0 0 0 0 0 6 19 32 39 58 71 81 74 84 84 87 84 77 77 74 84 77 77 77 77 81 77 77 77 68 58 58 48 45
0 0 0 0 0 0 0 0 0 0 0 0 0 0 0 16 26 35 39 55 61 77 87 90 87 90 87 81 81 77 77 77 77 81 81 77 71 74 61 61 58 58 58 45
0 0 0 0 0 0 0 0 0 0 0 0 0 0 3 26 39 42 42 58 58 74 84 87 87 81 84 81 77 74 74 77 77 77 77 77 71 68 61 68 68 61 55 48
0 0 0 0 0 0 0 0 0 0 0 0 0 0 0 16 35 52 45 58 61 77 77 77 77 77 81 81 77 71 71 77 77 77 71 65 68 68 61 52 45 52 55 48
0 0 0 0 0 0 0 0 0 0 0 0 0 0 0 16 29 52 58 58 68 81 87 77 77 84 81 81 74 71 71 77 77 68 68 68 65 65 61 48 45 48 48 42
0 0 0 0 0 0 0 0 0 0 0 0 0 0 6 23 29 48 52 65 74 90 94 87 81 84 81 74 74 74 74 71 71 68 61 65 61 55 55 42 42 35 35 39
0 0 0 0 0 0 0 0 0 0 0 0 0 0 26 32 39 52 74 77 84 94 90 84 81 87 84 77 77 74 68 68 65 61 58 58 55 52 45 45 35 32 32 26
0 0 0 0 0 0 0 0 0 0 0 0 0 0 16 29 48 61 81 84 90 94 97 90 87 87 87 87 84 77 71 61 61 58 55 52 48 45 42 35 29 29 23 23
0 0 0 0 0 0 0 0 0 0 0 0 0 0 10 29 35 58 81 90 94 97 97 90 87 87 87 87 87 77 71 58 58 55 52 45 39 42 39 32 23 26 23 16
0 0 0 0 0 0 0 0 0 0 0 0 0 0 19 39 52 68 84 94 94 97 97 97 87 87 87 84 81 71 74 71 61 52 48 42 39 39 39 29 19 23 10 10
0 0 0 0 0 0 0 3 0 0 0 0 0 6 23 48 61 77 90 97 97 97 97 97 87 81 81 81 77 74 71 68 58 55 42 39 35 32 29 19 19 16 3 6
0 0 0 0 0 0 3 6 3 3 6 10 6 16 45 55 65 74 84 97 97 97 94 94 87 81 77 74 71 65 65 61 55 48 39 35 32 26 29 23 13 6 6 6
3 3 0 0 0 0 3 10 10 10 6 19 19 32 52 55 58 81 90 90 90 90 90 90 90 81 74 74 61 55 48 45 42 35 32 35 29 26 23 16 6 6 6 6
3 3 0 0 0 0 3 13 19 13 10 32 39 45 58 65 52 71 90 90 87 87 87 87 87 74 71 68 61 55 48 45 35 29 29 29 19 26 23 16 13 10 6 6
0 0 0 0 0 0 13 16 23 3 10 55 58 61 65 71 74 81 87 84 84 84 84 84 84 77 71 65 58 58 55 52 35 29 26 26 19 19 19 16 13 10 10 6
3 0 3 3 0 0 16 19 19 48 68 68 71 71 77 77 84 81 74 81 81 84 81 81 77 71 65 65 55 55 55 45 32 29 23 16 16 13 10 10 10 10 10 10
3 6 6 6 6 23 26 45 58 61 71 68 71 71 77 81 81 77 77 77 74 74 77 81 77 74 58 58 55 58 45 29 26 26 26 19 16 10 10 10 10 6 6 6
10 6 16 23 19 26 32 39 42 52 65 65 68 71 71 77 81 77 74 77 74 74 71 65 74 71 61 55 55 48 35 26 26 26 23 16 16 13 13 10 6 6 6 6
10 16 13 29 29 32 39 45 45 52 61 61 71 71 68 71 74 65 71 71 68 68 65 65 65 58 52 45 42 32 29 26 26 19 19 13 13 13 13 10 6 6 6 0
6 13 16 19 29 32 35 35 42 48 48 61 68 61 61 65 65 65 68 68 65 58 55 52 58 48 48 42 29 29 26 23 19 19 13 13 10 10 10 10 3 0 0 0
Height
5927 5931 5933 5935 5937 5939 5940 5941 5942 5942 5941 5941 5940 5939 5938 5937 5935 5934 5932 5931 5929 5928 5926 5924 5923 5921 5919 5917 5915 5914 5912 5911 5910 5909 5908 5908 5907 5906 5906 5905 5904 5904 5904 5904
5926 5928 5931 5933 5935 5937 5938 5940 5941 5941 5941 5941 5940 5940 5938 5937 5936 5935 5933 5932 5930 5929 5927 5925 5923 5921 5919 5917 5916 5914 5913 5912 5911 5909 5908 5908 5907 5906 5905 5905 5904 5904 5903 5903
5922 5926 5928 5930 5932 5935 5936 5938 5939 5940 5940 5940 5940 5940 5939 5938 5936 5935 5934 5932 5931 5930 5928 5926 5924 5922 5920 5918 5916 5914 5913 5911 5910 5909 5908 5907 5906 5906 5905 5904 5904 5903 5903 5902
5918 5921 5925 5927 5930 5932 5934 5936 5937 5938 5939 5940 5941 5942 5939 5937 5936 5935 5934 5932 5931 5930 5928 5927 5925 5922 5920 5918 5916 5914 5913 5911 5910 5909 5908 5907 5906 5905 5905 5904 5903 5902 5902 5901
5915 5918 5921 5924 5927 5930 5932 5934 5935 5936 5938 5939 5939 5941 5941 5937 5936 5935 5934 5932 5931 5930 5928 5927 5925 5923 5921 5919 5917 5915 5913 5911 5910 5908 5907 5906 5905 5904 5903 5903 5902 5901 5901 5900
5911 5914 5918 5921 5924 5926 5928 5931 5933 5934 5936 5938 5938 5939 5939 5937 5935 5934 5933 5932 5931 5930 5928 5926 5925 5923 5921 5919 5917 5915 5913 5911 5910 5908 5907 5906 5905 5904 5903 5902 5901 5900 5900 5899
5906 5910 5913 5917 5920 5923 5926 5929 5932 5934 5936 5937 5936 5936 5937 5935 5934 5933 5932 5931 5930 5929 5928 5926 5924 5923 5921 5919 5917 5915 5913 5911 5909 5908 5907 5905 5904 5903 5902 5901 5900 5899 5899 5898
5902 5905 5909 5912 5916 5919 5922 5926 5930 5933 5935 5935 5933 5934 5935 5933 5932 5931 5931 5930 5929 5928 5927 5926 5924 5922 5920 5919 5916 5914 5912 5910 5909 5907 5906 5905 5903 5902 5900 5899 5899 5898 5897 5896
5897 5901 5904 5908 5912 5915 5918 5921 5926 5929 5930 5932 5932 5931 5931 5931 5930 5930 5929 5929 5928 5927 5926 5925 5923 5922 5920 5918 5916 5913 5911 5910 5908 5906 5905 5904 5902 5900 5899 5898 5897 5896 5895 5894
5892 5896 5899 5903 5907 5910 5914 5917 5920 5924 5926 5928 5929 5929 5930 5928 5928 5928 5927 5927 5926 5926 5925 5924 5922 5920 5919 5917 5915 5912 5910 5909 5907 5906 5904 5902 5901 5899 5898 5896 5895 5894 5893 5892
5886 5891 5894 5898 5901 5905 5909 5912 5915 5919 5922 5925 5928 5930 5926 5925 5925 5925 5925 5925 5925 5924 5923 5922 5921 5919 5917 5916 5914 5912 5910 5908 5907 5905 5903 5901 5899 5897 5896 5895 5894 5892 5891 5890
5880 5885 5889 5893 5896 5900 5904 5907 5910 5914 5916 5919 5923 5927 5921 5922 5922 5923 5923 5923 5923 5922 5921 5920 5919 5918 5916 5914 5913 5911 5909 5907 5905 5903 5902 5900 5898 5896 5895 5893 5892 5891 5890 5888
5873 5879 5883 5887 5892 5895 5898 5901 5905 5909 5912 5914 5918 5923 5918 5919 5919 5920 5920 5920 5920 5920 5919 5918 5916 5916 5914 5913 5911 5909 5908 5906 5904 5902 5901 5898 5897 5895 5894 5892 5890 5889 5888 5887
5867 5872 5879 5884 5887 5889 5892 5896 5900 5904 5907 5910 5913 5916 5915 5915 5916 5916 5917 5917 5917 5917 5916 5916 5914 5914 5912 5911 5909 5908 5906 5904 5902 5901 5899 5897 5895 5894 5892 5891 5889 5887 5886 5884
5860 5866 5871 5876 5880 5883 5887 5890 5894 5898 5902 5905 5908 5909 5911 5911 5912 5913 5913 5914 5914 5914 5914 5913 5912 5911 5910 5908 5907 5905 5904 5902 5901 5899 5897 5896 5894 5892 5891 5889 5887 5885 5884 5882
5854 5860 5865 5869 5873 5877 5881 5885 5888 5892 5895 5899 5902 5904 5905 5906 5908 5909 5910 5910 5911 5911 5910 5910 5909 5908 5907 5906 5905 5903 5902 5900 5899 5897 5896 5894 5892 5890 5889 5887 5885 5883 5882 5880
5848 5854 5859 5864 5867 5871 5875 5879 5883 5886 5889 5893 5896 5899 5900 5902 5903 5905 5906 5906 5907 5907 5907 5907 5906 5905 5905 5903 5902 5900 5899 5898 5896 5895 5893 5892 5890 5888 5886 5884 5883 5881 5879 5877
5842 5847 5853 5858 5861 5865 5871 5873 5877 5880 5884 5887 5890 5892 5894 5896 5898 5900 5901 5902 5903 5903 5903 5903 5902 5902 5901 5900 5899 5897 5896 5894 5893 5892 5890 5889 5886 5885 5883 5881 5880 5878 5876 5874
5835 5841 5846 5851 5855 5859 5863 5867 5871 5875 5878 5881 5883 5886 5888 5891 5893 5894 5896 5897 5898 5899 5899 5899 5898 5898 5897 5896 5895 5894 5892 5891 5890 5888 5887 5885 5883 5881 5880 5878 5877 5875 5873 5871
5828 5834 5840 5844 5849 5853 5857 5861 5865 5869 5871 5875 5877 5880 5883 5885 5888 5889 5891 5892 5893 5894 5894 5894 5894 5894 5893 5892 5891 5890 5888 5887 5886 5885 5883 5881 5880 5878 5877 5875 5873 5871 5869 5867
5821 5826 5831 5836 5842 5846 5849 5854 5859 5864 5866 5869 5871 5874 5876 5879 5881 5883 5884 5886 5887 5889 5889 5890 5890 5889 5888 5888 5887 5886 5884 5883 5882 5881 5879 5877 5875 5874 5873 5871 5869 5867 5865 5864
5814 5819 5824 5829 5835 5841 5842 5847 5852 5855 5858 5862 5865 5867 5870 5872 5874 5876 5878 5880 5882 5883 5884 5885 5884 5884 5883 5883 5882 5881 5880 5879 5878 5877 5875 5873 5872 5870 5868 5867 5865 5863 5861 5859
5806 5812 5817 5822 5828 5831 5835 5839 5844 5848 5851 5854 5857 5860 5863 5865 5868 5870 5872 5874 5876 5877 5878 5879 5879 5878 5878 5877 5877 5876 5876 5875 5874 5872 5871 5869 5867 5866 5864 5862 5860 5858 5856 5854
5798 5803 5809 5814 5819 5823 5827 5832 5836 5840 5843 5847 5850 5853 5856 5858 5861 5863 5865 5867 5869 5871 5872 5872 5872 5872 5872 5872 5871 5871 5871 5869 5868 5867 5866 5864 5862 5860 5859 5857 5855 5853 5851 5850
5790 5796 5801 5806 5811 5815 5820 5824 5828 5832 5836 5839 5842 5845 5848 5851 5854 5856 5858 5860 5862 5863 5865 5865 5866 5866 5866 5866 5866 5865 5864 5864 5862 5861 5860 5858 5857 5855 5853 5851 5849 5847 5846 5844
5782 5787 5793 5797 5803 5807 5812 5816 5820 5824 5828 5831 5834 5838 5841 5844 5846 5849 5851 5853 5855 5856 5857 5858 5859 5859 5859 5860 5859 5859 5858 5857 5856 5855 5853 5852 5850 5849 5847 5845 5843 5841 5840 5838
Wind_Speed
14 13 12 10 10 9 8 5 3 2 1 2 3 5 6 6 7 8 9 8 9 9 10 10 10 10 10 10 9 8 7 6 5 4 4 4 3 2 2 2 1 1 2 3
16 15 13 12 11 10 8 6 5 3 1 0 2 4 5 5 6 6 7 7 8 9 10 11 11 11 11 10 9 8 7 6 6 5 5 4 4 4 3 3 3 2 2 3
18 17 15 14 12 11 10 8 6 4 2 1 1 4 4 5 5 6 6 6 7 8 10 11 11 11 11 10 9 8 8 7 7 6 6 5 5 5 5 4 4 4 4 3
21 19 17 16 14 13 12 10 8 5 3 4 1 3 5 4 5 6 6 6 7 8 10 11 11 12 12 11 10 9 8 8 7 7 7 6 5 6 6 5 5 5 5 5
24 21 19 18 16 14 14 11 10 8 6 5 4 2 6 5 5 6 6 6 7 8 10 11 11 12 12 12 11 10 9 8 8 8 7 7 7 6 6 6 5 5 5 6
26 23 22 20 18 17 15 13 12 10 8 8 7 4 5 6 5 5 5 6 6 8 10 10 10 11 11 12 12 11 10 9 8 7 7 7 7 7 7 6 6 6 6 7
28 26 25 22 21 20 18 15 14 12 11 11 9 6 7 7 7 7 6 6 7 8 9 10 9 10 11 12 12 11 11 10 8 8 8 7 8 8 7 7 7 7 7 8
29 28 27 25 23 21 20 18 17 14 12 12 11 9 8 7 8 8 7 7 8 8 9 9 9 10 11 12 13 13 12 10 9 9 8 8 8 8 8 7 7 7 8 9
30 29 28 26 25 24 22 21 18 16 15 13 13 11 9 9 9 9 8 8 8 8 9 9 9 10 11 12 13 13 11 10 10 9 9 9 9 8 8 8 7 8 8 9
31 30 29 27 26 26 25 23 21 19 17 14 14 12 11 11 10 9 9 9 9 9 9 10 10 11 11 13 13 13 11 10 10 10 10 10 10 9 9 9 8 9 9 9
32 31 30 29 28 27 26 25 23 21 19 16 13 13 13 12 11 10 10 10 9 9 10 11 11 11 12 13 13 13 12 11 11 11 10 11 11 10 10 9 9 9 9 9
33 31 30 30 29 28 27 26 25 23 21 18 15 14 14 12 11 11 11 10 10 10 10 11 11 11 12 13 13 13 12 12 12 11 11 11 11 10 10 9 9 9 10 10
33 33 31 31 31 30 29 27 25 22 21 20 17 15 16 13 12 12 12 11 11 11 11 12 11 12 12 12 12 12 12 12 12 12 11 11 11 11 11 11 10 10 10 10
34 34 32 28 27 28 28 27 26 24 23 21 19 17 17 15 14 13 13 13 13 13 13 13 13 13 13 13 13 13 13 13 13 13 12 12 12 12 12 12 12 12 11 11
34 34 33 32 30 28 27 27 26 25 24 21 20 19 18 16 15 15 14 14 14 14 14 14 14 14 14 14 14 13 13 13 14 13 12 12 12 13 13 13 13 13 12 12
34 34 33 33 31 30 29 28 27 26 25 23 21 20 19 18 17 16 16 15 14 14 14 14 14 14 14 15 14 14 15 14 14 13 13 13 13 14 14 14 14 13 13 13
33 33 32 31 32 31 31 29 28 27 26 24 22 21 20 19 17 17 16 16 15 15 14 14 14 15 15 15 15 15 16 16 15 14 14 15 15 15 15 15 16 15 14 14
33 32 32 31 32 32 30 30 28 27 26 25 24 22 21 20 19 18 17 17 16 16 16 16 16 16 16 16 16 17 17 17 16 15 15 16 16 16 16 16 16 14 15 15
35 34 32 32 31 32 32 31 29 28 27 26 25 24 23 21 20 19 19 19 18 18 17 17 17 18 18 18 18 18 18 16 16 16 16 17 17 17 17 17 15 15 15 15
36 35 34 34 32 30 32 31 29 28 28 27 26 26 24 23 22 22 21 20 20 19 18 18 18 19 19 19 18 18 17 16 16 17 17 18 18 18 18 16 16 16 16 16
37 37 36 34 33 31 32 31 30 30 29 27 26 26 26 25 24 23 22 22 21 21 20 19 19 20 19 18 18 18 18 18 18 18 18 18 18 18 18 17 17 17 17 17
37 37 37 35 33 33 34 32 32 31 29 28 27 26 25 24 24 23 23 23 22 22 22 21 21 21 21 20 19 18 18 18 19 19 19 19 19 19 19 19 18 18 18 18
38 38 37 37 36 35 34 33 32 31 30 29 28 27 26 26 25 25 24 24 24 23 23 23 22 22 21 20 20 19 19 20 20 20 20 21 21 21 21 20 20 20 19 19
38 38 38 37 36 35 34 33 32 32 31 30 29 29 28 27 26 26 26 26 26 26 25 24 24 23 22 22 21 21 21 22 22 22 22 22 22 22 21 21 21 21 20 20
38 38 37 37 36 35 34 33 33 33 32 31 30 29 28 28 28 28 28 27 28 27 26 25 26 25 24 24 24 23 24 24 23 23 23 23 23 23 22 21 22 22 21 22
37 38 38 38 36 36 35 34 33 33 33 32 31 31 30 28 27 27 28 28 28 27 26 26 26 25 25 25 25 25 25 25 24 23 24 24 24 23 23 23 23 23 23 23
Wind_Direction
210 210 211 207 197 197 194 191 197 200 174 54 34 20 19 22 28 29 23 17 14 12 12 11 8 5 7 8 12 14 11 3 358 352 349 349 349 343 303 298 300 300 266 257
214 215 215 214 207 205 203 206 219 231 237 1 21 359 357 5 8 14 15 14 9 8 10 8 6 2 1 2 8 11 11 5 353 342 339 342 341 331 311 298 301 295 282 263
217 220 218 217 215 213 213 214 223 237 249 257 339 343 336 343 348 352 359 6 4 3 5 4 4 3 5 6 4 3 2 360 353 342 334 333 337 332 323 304 291 290 298 286
219 222 221 221 220 216 220 221 228 238 241 263 262 310 316 328 335 340 347 354 355 355 358 357 360 2 3 2 1 360 356 351 347 344 340 333 327 323 315 310 297 292 298 300
222 223 223 223 223 219 223 226 231 238 246 260 271 274 293 310 319 325 332 340 348 353 354 351 354 358 1 1 360 358 355 351 344 339 340 342 339 329 320 315 308 302 301 306
225 224 224 224 224 223 226 230 235 242 251 259 262 260 279 292 300 313 324 333 341 350 353 349 348 353 356 356 356 356 355 351 345 342 339 334 333 330 323 317 313 308 301 301
226 226 225 224 225 226 226 229 235 242 248 255 261 258 265 276 284 296 307 317 323 336 345 346 345 347 351 351 351 351 352 350 345 341 336 331 326 324 319 313 311 309 307 304
227 227 226 226 227 229 228 229 230 234 244 255 264 258 263 274 280 287 295 305 311 321 331 336 336 341 345 345 346 346 346 347 344 337 333 330 327 322 319 311 310 308 305 302
225 227 227 227 228 229 229 229 230 239 244 244 254 259 264 271 276 278 283 292 300 308 319 328 331 337 340 341 341 342 342 340 338 334 331 330 328 325 319 313 307 308 309 308
224 227 228 228 228 228 230 231 232 234 240 243 254 259 258 264 267 271 278 281 288 297 309 317 325 330 334 336 336 335 336 336 334 331 330 330 327 321 315 313 308 305 306 304
224 226 228 228 228 230 231 232 235 237 239 240 248 257 257 256 258 264 271 272 277 289 301 309 314 320 325 329 333 336 336 334 333 330 327 328 324 319 316 311 309 306 306 305
223 224 227 229 229 230 231 234 237 239 242 241 238 250 255 251 254 260 263 266 273 285 296 303 305 312 319 326 329 332 333 332 331 329 325 326 324 325 320 317 315 308 305 306
222 223 224 227 229 229 231 234 236 238 243 243 241 246 252 249 253 257 259 264 272 280 287 299 301 308 314 320 322 325 327 328 327 328 325 322 322 325 323 320 317 312 306 305
221 222 222 225 231 233 232 234 236 236 237 242 239 237 247 246 250 254 256 262 270 276 282 291 298 303 307 312 315 317 320 321 323 323 323 325 323 322 321 319 315 310 307 305
221 222 222 222 225 229 233 234 235 235 236 238 241 240 241 244 246 251 254 259 266 273 280 287 292 295 298 303 307 310 315 314 317 318 317 320 323 323 320 317 313 307 303 304
220 222 222 224 226 229 231 231 233 234 235 237 238 241 241 242 245 250 252 256 261 268 275 283 289 294 296 299 303 306 309 308 310 310 311 313 314 318 320 319 318 315 312 310
220 221 221 223 225 228 230 230 232 234 236 238 240 242 244 243 244 247 249 252 257 261 269 278 285 291 294 297 300 301 300 300 302 304 306 309 310 310 312 311 312 310 309 311
220 220 220 221 224 226 230 231 231 234 236 238 239 241 242 242 243 244 246 249 251 257 266 273 281 286 288 292 297 298 297 294 294 296 300 305 304 305 307 309 309 308 306 306
219 220 220 221 226 228 230 230 231 233 236 237 239 240 241 242 243 244 245 248 251 256 263 270 276 282 286 288 291 293 293 292 293 294 298 301 302 303 304 305 307 306 307 307
219 220 222 223 223 228 233 232 231 233 236 236 238 240 242 242 243 245 245 247 250 252 259 267 274 279 282 284 286 288 290 290 293 295 296 297 300 301 300 302 303 303 304 307
219 220 222 224 225 228 231 231 229 233 236 237 239 241 242 242 243 245 244 245 248 251 258 265 270 275 277 278 281 285 286 288 291 294 298 302 303 300 298 299 300 302 302 303
219 221 222 224 226 230 231 231 231 234 237 238 240 241 242 242 242 244 244 244 246 251 257 262 267 271 274 276 277 279 283 286 290 293 296 299 300 299 296 297 299 299 301 302
221 221 223 225 226 230 232 233 234 235 236 238 239 240 241 242 242 243 244 245 247 251 255 260 264 270 271 270 273 276 279 283 288 290 292 295 296 296 296 296 298 297 298 299
222 223 225 227 228 230 233 234 234 234 236 237 238 240 241 242 243 245 246 246 248 252 256 260 264 268 270 272 274 277 280 284 286 288 289 291 294 294 293 294 296 297 296 297
223 224 225 227 228 229 231 232 233 234 236 238 238 239 241 242 244 245 245 247 249 252 255 259 263 267 269 273 274 276 280 283 285 286 288 289 292 293 292 293 295 295 295 297
224 224 225 227 228 229 230 232 234 234 235 237 238 239 241 243 243 244 247 249 250 251 254 259 262 265 267 271 273 275 278 281 283 285 288 289 290 290 291 292 294 293 294 295